STARLINK-35215

Last updated on Mon Oct 20 2025 00:02:07 GMT+0000 (Coordinated Universal Time)

1 65813U 25218Y 25292.25915419 .00070002 00000+0 12760-2 0 9993 2 65813 97.6027 152.8444 0001424 104.5545 255.5863 15.49219055 3647
UTC large
Height (km)
Speed (km/s)
/
Latitude / Longitude
Inclination (degrees)
Orbital Period (minutes)
Azimuth
Elevation
Range (km)
Doppler Factor

Next 0 passes for location: London (51.5072 / 0.1276)

Sorry there are no passes over London.